バス彗星

87P/Bus (2000)

English version
Home page
Total 6,336 html files since Dec. 4, 1995
Updated on May 27, 2001

---------------------------------------------------------------------

・ プロフィール

・ 軌道要素

Epoch 2001 Jan. 11.0 TT = JDT 2451920.5  
T 2000 Dec. 29.75876 TT                                 Muraoka 
q   2.1809118            (2000.0)            P               Q
n   0.15120274     Peri.   24.14603     -0.89608870     +0.44387165
a   3.4894979      Node   182.20741     -0.41420638     -0.83758864
e   0.3750070      Incl.    2.57417     -0.15955597     -0.31847014
P   6.52
From 79 observations 1981-2000, mean residual 0".82.  Nongravitational
   parameters A1 = +0.36 +/- 0.13, A2 = -0.3534 +/- 0.0045.

・ 星図

・ 光度変化

        m1 = 11.0 + 5 logΔ + 15.0 log r

---------------------------------------------------------------------

軌道要素は村岡健治氏の計算によるものです。
星図は StellaNavigator Ver.2.0 for Windows (アストロアーツ 編著 / アスキー出版局刊) で作成したものです。
光度グラフはComet for Windowsで作成したものです。

---------------------------------------------------------------------

Copyright(C) 1995-2008 Seiichi Yoshida (comet@aerith.net). All rights reserved.